Location: Burgerwiesen
(48.6500°N, 15.6167°E)
Time: 23:18:54
(UTC+00:00)

Cosmos 1356 Rocket - Pass Details

Date: 09 April 2020
Orbit: 543 x 599 km, 81.2° (Epoch: 03 June)

Event Time Altitude Azimuth Distance (km) Brightness Sun altitude
Exits shadow 20:13:48 70° 71° (ENE) 632 3.4 -22.8°
Drops below altitude 10° 20:17:49 10° 15° (NNE) 1,920 6.4 -23.3°
Sets 20:20:01 0° 14° (NNE) 2,817 7.4 -23.5°
